Regional Weather Roundup
Issued by NWS

Home | Current Version | Previous Version | Graphics & Text | Print | Product List | Glossary On
Versions: 1 2 3 4 5 6 7 8 9 10 11 12 13 14 15 16 17 18 19 20 21 22 23 24 25 26 27 28 29 30 31 32 33 34 35 36 37 38 39 40 41 42 43 44 45 46 47 48 49 50
000
ASUS43 KMKX 282100
RWRWI

WISCONSIN REGIONAL WEATHER ROUNDUP
NATIONAL WEATHER SERVICE MILWAUKEE/SULLIVAN WI
400 PM CDT THU APR 28 2016

NOTE: "FAIR" INDICATES FEW OR NO CLOUDS BELOW 12,000 FEET WITH NO
SIGNIFICANT WEATHER AND/OR OBSTRUCTIONS TO VISIBILITY.

WIZ001-002-006>008-014>016-023>028-282200-
NORTHWEST WISCONSIN

CITY           SKY/WX    TMP DP  RH WIND       PRES   REMARKS
SUPERIOR ARPT  CLOUDY    40  32  71 NE16G25   30.12S WCI  32
ASHLAND        CLOUDY    44  33  65 NE17      30.11S
HAYWARD        CLOUDY    48  30  49 NE17      30.04R
SIREN          CLOUDY    52  24  33 NE6       30.03S
CUMBERLAND     CLOUDY    50  30  46 NE13      30.01S
RICE LAKE      CLOUDY    51  27  39 NE7       30.02S
CHETEK         CLOUDY    48  33  55 SW6       30.01S
LADYSMITH      CLOUDY    52  21  29 E7        30.03S
EAU CLAIRE     LGT RAIN  43  36  76 E9        30.02S
MENOMONIE      DRIZZLE   41  41  99 E8        30.03S
NEW RICHMOND   LGT RAIN  43  33  67 CALM      30.03S
OSCEOLA        CLOUDY    46  36  70 S7        30.06R
$$

WIZ003>005-009-010-017-018-282200-
NORTH CENTRAL WISCONSIN

CITY           SKY/WX    TMP DP  RH WIND       PRES   REMARKS
MANITOWISH WTR PTSUNNY   54  21  27 SE5       30.02S
ARBOR VITAE    MOSUNNY   54  17  23 SE7       30.01F
WOODRUFF       MOSUNNY   54  17  23 SE7       30.01F
RHINELANDER    PTSUNNY   53  20  27 E9        30.01S
EAGLE RIVER    MOSUNNY   54  18  24 E9        30.01S
LAND O LAKES   MOSUNNY   54  19  25 E9        30.03S
PHILLIPS       CLOUDY    53  22  29 NE8       30.00F
TOMAHAWK       PTSUNNY   53  19  25 NE8       30.01S
MEDFORD        CLOUDY    42  32  66 SE6       30.01R
MERRILL        PTSUNNY   52  27  37 SE13      30.01S
$$

WIZ029-030-035-036-043>047-282200-
CENTRAL WISCONSIN

CITY           SKY/WX    TMP DP  RH WIND       PRES   REMARKS
WAUSAU         LGT RAIN  42  34  73 SE7       30.02R
MOSINEE        LGT RAIN  39  37  93 SE8       30.04S WCI  34
MARSHFIELD     LGT RAIN  40  35  83 E14       30.00S WCI  32
STEVENS POINT  LGT RAIN  36  34  92 E9        30.03S WCI  29
WAUPACA        LGT RAIN  43  37  78 NE5       30.03S
WAUTOMA        NOT AVBL
WISC RAPIDS    LGT RAIN  39  36  89 E12       30.02F WCI  32
CAMP DOUGLAS   CLOUDY    41  41 100 E8        29.99S
$$

WIZ011>013-019>022-031-037>040-048>050-282200-
NORTHEAST WISCONSIN

CITY           SKY/WX    TMP DP  RH WIND       PRES   REMARKS
ANTIGO         CLOUDY    48  26  41 E9        30.01F
SHAWANO        LGT RAIN  47  31  53 NE7G16    30.04S
OCONTO         CLOUDY    44  30  58 NE5       30.05S
STURGEON BAY   CLOUDY    43  27  52 NE10      30.07F
GREEN BAY      CLOUDY    47  28  47 E12       30.03S
MANITOWOC      NOT AVBL
APPLETON       CLOUDY   N/A N/A N/A E7        30.00S
CLINTONVILLE   CLOUDY    43  32  65 NE10      30.03F
OSHKOSH        CLOUDY    44  33  65 NE9       29.99F
$$

WIZ032>034-041-042-053>061-282200-
SOUTHWEST WISCONSIN

CITY           SKY/WX    TMP DP  RH WIND       PRES   REMARKS
LA CROSSE      LGT RAIN  42  39  89 E8        29.98S FOG
SPARTA         DRIZZLE   40  39  95 E9        29.99S WCI  35
VIROQUA        CLOUDY    40  39  97 E12       29.96R WCI  32
BOSCOBEL       CLOUDY    45  39  79 E8        29.97R
PRAIRIE DU CHI CLOUDY    44  38  79 NE10      29.95R
PLATTEVILLE    CLOUDY    45  42  88 NE13      29.93R
$$

WIZ056-057-062-063-064-067-068-282200-
SOUTH CENTRAL WISCONSIN

CITY           SKY/WX    TMP DP  RH WIND       PRES   REMARKS
REEDSBURG      CLOUDY    39  38  94 E9        29.97S FOG     WCI  33
BARABOO/DELLS  CLOUDY    39  37  92 E9        29.97S FOG     WCI  33
LONE ROCK      NOT AVBL
MINERAL POINT  CLOUDY    45  41  87 NE12      29.93S
MADISON        DRIZZLE   40  37  89 E15       29.96S WCI  32
MIDDLETON      CLOUDY    42  38  88 E13G21    29.96S
WATERTOWN      CLOUDY    39  38  95 E10G17    29.96S WCI  32
MONROE         CLOUDY    46  41  81 NE10G17   29.92S
JANESVILLE     NOT AVBL
$$

WIZ051-052-058>065-066-070>072-282200-
SOUTHEAST WISCONSIN

CITY           SKY/WX    TMP DP  RH WIND       PRES   REMARKS
MILWAUKEE      CLOUDY    40  37  89 E15       29.98S WCI  32
WAUKESHA       CLOUDY    37  36  93 E14G23    29.98R FOG     WCI  29
MILWAUKEE/TIMM CLOUDY    39  34  81 E13G21    29.99F WCI  32
RACINE         CLOUDY    40  37  89 NE12      29.98R WCI  33
BURLINGTON     CLOUDY    40  37  87 E12       29.95S WCI  33
KENOSHA        CLOUDY    41  37  86 NE16      29.96R FOG
FOND DU LAC    CLOUDY    43  33  68 E16G23    29.99F
SHEBOYGAN      CLOUDY    42  32  67 NE13      30.00F
WEST BEND      CLOUDY    37  36  93 E18G25    29.98F WCI  27
JUNEAU         CLOUDY    38  36  91 E13G23    29.98S WCI  31
$$

LSZ147-162-282200-
LAKE SUPERIOR

STATION/POSITION TIME  TEMP    WIND        PRES    WAVE
                       AIR SEA DIR/SP/G            HT/PER
                 (UTC) (F)     (DEG/KT/KT) (MB)    (FT/S)
W MID LAKE BUOY  1950   37 36   50/ 16/ 19 1021.3S   4/ 6
DEVILS ISLAND    2000   38      50/ 24/ 27 1020.7F
PORT WING        1901   40      40/ 21/ 26 1019.6
SAXON HARBOR     2000   39      30/ 12/ 16 1019.3R
$$

LMZ867-665-643>646-282200-
LAKE MICHIGAN

STATION/POSITION TIME  TEMP    WIND        PRES    WAVE
                       AIR SEA DIR/SP/G            HT/PER
                 (UTC) (F)     (DEG/KT/KT) (MB)    (FT/S)
CHAMBERS ISLAND  2040   40      20/ 11/ 12 1017.9F
N MID LAKE BUOY  1950   39 39   50/ 12/ 14 1018.4F   2/ 4
NORTHPORT PIER   2000   41      60/ 10/ 14 1018.3S
ALGOMA LAKESHORE 1900           60/ 18/ 20   N/A
KEWAUNEE LAKESHO 2000   41      50/  9/ 12 1016.9S
SHEBOYGAN LAKESH 2000   40      30/ 13/ 14 1017.0F
PORT WASHINGTON  2000   41      60/ 15/ 20 1016.9R
S MID LAKE BUOY  1950   40 40   60/ 14/ 17 1014.0S   3/ 5
KENOSHA   LAKESH 2000   40      50/ 15/ 20 1014.2R
$$

TC  - TEMPERATURE IN CELSIUS
VSB - VISIBILITY IN STATUTE MILES
WCI - WIND CHILL INDEX
HX  - HEAT INDEX





USA.gov is the U.S. government's official web portal to all federal, state and local government web resources and services.